Location: DARK SKY Beskydy - Park tmavé oblohy, www.darkskybeskydy.cz
(49.4926°N, 18.5016°E)
Time: 11:48:13
(UTC+02:00)

Vanguard 1 - Pass Details

Date: 29 February 2024
Orbit: 653 x 3825 km, 34.2° (Epoch: 12 April)

Event Time Altitude Azimuth Distance (km) Brightness Sun altitude
Rises 19:28:41 0° 239° (WSW) 5,096 14.4 -20.3°
Reaches altitude 10° 19:31:40 10° 233° (SW) 4,452 13.9 -20.8°
Maximum altitude 19:44:02 45° 166° (SSE) 3,584 12.6 -22.7°
Enters shadow 19:53:32 30° 119° (ESE) 4,905 13.0 -24.2°
Drops below altitude 10° 20:03:35 10° 103° (ESE) 6,825 - -25.8°
Sets 20:09:33 0° 99° (E) 7,959 - -26.7°
